This is the latest recevied weather packets stored in our database for station/object KN4MGS. If no packets are shown the sender has not sent any weather packets the latest 10 day(s).
| Time | Temp. | Humidity | Pressure | Rain* | Wind** | Luminosity | Snow |
|---|---|---|---|---|---|---|---|
| 1777116855 | 10.56° C | 99% | 1013.9 hPa | 0 mm | - | 35 W/m² | - |
| 1777116551 | 10.56° C | 99% | 1014.1 hPa | 0 mm | - | 32 W/m² | - |
| 1777116248 | 10.56° C | 99% | 1014.1 hPa | 0 mm | - | 30 W/m² | - |
| 1777115942 | 10.56° C | 99% | 1014 hPa | 0 mm | - | 29 W/m² | - |
| 1777115638 | 10° C | 99% | 1013.8 hPa | 0 mm | - | 26 W/m² | - |
| 1777115334 | 10° C | 99% | 1013.7 hPa | 0 mm | - | 22 W/m² | - |
| 1777115030 | 10° C | 99% | 1013.9 hPa | 0 mm | - | 18 W/m² | - |
| 1777114728 | 10° C | 99% | 1013.9 hPa | 0 mm | - | 13 W/m² | - |
| 1777114423 | 10° C | 99% | 1013.6 hPa | 0 mm | - | 8 W/m² | - |
| 1777114119 | 10° C | 99% | 1013.8 hPa | 0 mm | - | 4 W/m² | - |
| 1777113816 | 10° C | 99% | 1013.9 hPa | 0 mm | - | 2 W/m² | - |
| 1777113514 | 10° C | 99% | 1013.8 hPa | 0 mm | - | 0 W/m² | - |
| 1777113214 | 10° C | 99% | 1013.8 hPa | 0 mm | - | 0 W/m² | - |
| 1777112909 | 10° C | 99% | 1013.6 hPa | 0 mm | - | 0 W/m² | - |
| 1777112607 | 10° C | 99% | 1013.6 hPa | 0 mm | - | 0 W/m² | - |
| 1777112302 | 10° C | 99% | 1013.6 hPa | 0 mm | - | 0 W/m² | - |
| 1777112000 | 10° C | 99% | 1013.3 hPa | 0 mm | - | 0 W/m² | - |
| 1777111696 | 10° C | 99% | 1013.4 hPa | 0 mm | - | 0 W/m² | - |
| 1777111392 | 10° C | 99% | 1013.5 hPa | 0 mm | - | 0 W/m² | - |
| 1777111088 | 10° C | 99% | 1013.3 hPa | 0 mm | - | 0 W/m² | - |
| 1777110785 | 10.56° C | 99% | 1013.2 hPa | 0 mm | - | 0 W/m² | - |
| 1777110481 | 10° C | 99% | 1013.2 hPa | 0 mm | - | 0 W/m² | - |
| 1777110175 | 10° C | 99% | 1013.3 hPa | 0 mm | - | 0 W/m² | - |
| 1777109871 | 10.56° C | 99% | 1013 hPa | 0 mm | - | 0 W/m² | - |
| 1777109568 | 10.56° C | 99% | 1013 hPa | 0 mm | - | 0 W/m² | - |
* Rain latest hour (hover to see other rain measurements)
** Current wind speed in m/s (hover to see current wind gust speed)